FENGYUN 1C DEB

Satellite information

Favourite Embed

Satellite Type and Status

DEBRISIN ORBIT

Key statistics

Satellite FENGYUN 1C DEB at a glance.

Uptime

9555

Days in orbit

Revolutions

≈ 14.9

Per day

Orbit

SSO

Sun Synchronous Orbit

Inclination

98.8

Latest

Satellite identification and parameters

Extended collection of information and parameters for FENGYUN 1C DEB.

Object identification

Identified? True

Debris? True

Object name: FENGYUN 1C DEB

International designator: 1999-025AZQ

Object number (NORAD): 30926

Object ID (CCSDS): 30926

Country: PEOPLES REPUBLIC OF CHINA (PRC)

Current information (Y/N): Y

RCS size: SMALL

Orbital parameters

Period: 96.819 minutes

Inclination: 98.7894 deg

SMA: 6984.499 km

Apoapsis: 725.635 km

Periapsis: 487.094 km

RAAN: 111.1469 deg

Eccentricy: 0.0170765

Argument of periapsis: 171.0953 deg

Mean anomaly: 189.3358 deg

Mean motion: 14.87304317 rev/day

Mean motion (dot): 0.0000259 rev/day2

B* drag term: 0.0002264 1/REarth

Two-line elements (TLE)

Creation date: July 6, 2025, 10:46 p.m.

Reference frame: TEME

Reference center: EARTH

Epoch: July 6, 2025, 5:39 p.m. UTC

TLE line 0: 0 FENGYUN 1C DEB

TLE line 1: 1 30926U 99025AZQ 25187.73587450 .00002590 00000-0 22640-3 0 9990

TLE line 2: 2 30926 98.7894 111.1469 0170765 171.0953 189.3358 14.87304317984547

Live tracking on map

Real-time ground track for satellite FENGYUN 1C DEB.

In-orbit conjunctions

A list of the most updated potential collisions computed for object FENGYUN 1C DEB.

Target Orbit TCA Probability of collision Miss distance Type
CZ-6A DEB LEO 2024-10-02 00:39:37 0.0005309629 486.0 (m) DEBRIS
SL-8 R/B LEO 2024-09-10 16:53:06 0.0001172269 459.0 (m) ROCKET BODY

Associated space launch

Chinese polar orbiting meteorological satellite

FENGYUN 1C DEB was lifted into orbit during the mission ‘Long March 4B | Feng Yun 1C’, on board a Long March 4B space rocket.

The launch took place on May 10, 1999, 1:33 a.m. from Launch Complex 7.

For more information about the launch, click the button.

Launch to space Long March 4B | Feng Yun 1C
Long March 4B | Feng Yun 1C

Agency: N/A

Status: Launch Successful

Launch date: May 10, 1999, 1:33 a.m. UTC

Rocket: Long March 4B

Launch pad: Launch Complex 7

Location: Taiyuan Satellite Launch Center, People's Republic of China

...

Latest news about this satellite

There are no fresh news available about this satellite. Check back as we update our databases every day.


Newsletter sign-up

Weekly statistics, charts and insights to help you stay on top of the space industry.